When you browse on this site, cookies collect data to enhance your experience and personalize the content and advertising you see.
Visit our Privacy Policy to learn more. By continuing to use the site, you agree to this use of cookies and data.
  • In Denmark
  • List of Countries
  • For 7 days
  • Water Temperature
  • Weather Map
  • Weather Widgets
  • user-avatar
    Login

    Hourly Weather Abovyan

    Today, 20 August, Tuesday

    Time Temperature Precipitation Wind Pressure Humidity
    00:00 +25°C° 0 mm 3 mps 674 mmHg 36%
    01:00 +25°C° 0 mm 3 mps 674 mmHg 36%
    02:00 +24°C° 0 mm 2 mps 674 mmHg 36%
    03:00 +23°C° 0 mm 2 mps 674 mmHg 36%
    04:00 +23°C° 0 mm 2 mps 674 mmHg 36%
    05:00 +23°C° 0 mm 2 mps 675 mmHg 36%
    06:00 +23°C° 0 mm 2 mps 675 mmHg 35%
    07:00 +26°C° 0 mm 2 mps 675 mmHg 31%
    08:00 +29°C° 0 mm 2 mps 676 mmHg 26%
    09:00 +31°C° 0 mm 2 mps 676 mmHg 22%
    10:00 +34°C° 0 mm 2 mps 676 mmHg 20%
    11:00 +36°C° 0 mm 2 mps 676 mmHg 18%
    12:00 +37°C° 0 mm 3 mps 676 mmHg 16%
    13:00 +38°C° 0 mm 3 mps 676 mmHg 15%
    14:00 +40°C° 0 mm 4 mps 676 mmHg 14%
    15:00 +40°C° 0 mm 5 mps 676 mmHg 14%
    16:00 +39°C° 0 mm 5 mps 675 mmHg 18%
    17:00 +36°C° 0 mm 5 mps 675 mmHg 22%
    18:00 +35°C° 0 mm 5 mps 675 mmHg 26%
    19:00 +33°C° 0 mm 5 mps 675 mmHg 29%
    20:00 +29°C° 0 mm 4 mps 675 mmHg 31%
    21:00 +27°C° 0 mm 4 mps 675 mmHg 34%
    22:00 +26°C° 0 mm 3 mps 674 mmHg 34%
    23:00 +25°C° 0 mm 3 mps 674 mmHg 34%

    Tomorrow, 21 August, Wednesday

    Time Temperature Precipitation Wind Pressure Humidity
    00:00 +24°C° 0 mm 2 mps 674 mmHg 35%
    01:00 +23°C° 0 mm 2 mps 674 mmHg 34%
    02:00 +21°C° 0 mm 2 mps 674 mmHg 34%
    03:00 +21°C° 0 mm 2 mps 674 mmHg 34%
    04:00 +21°C° 0 mm 2 mps 674 mmHg 33%
    05:00 +21°C° 0 mm 2 mps 674 mmHg 31%
    06:00 +22°C° 0 mm 1 mps 674 mmHg 30%
    07:00 +25°C° 0 mm 1 mps 674 mmHg 26%
    08:00 +28°C° 0 mm 2 mps 675 mmHg 22%
    09:00 +30°C° 0 mm 2 mps 675 mmHg 18%
    10:00 +32°C° 0 mm 2 mps 675 mmHg 17%
    11:00 +35°C° 0 mm 2 mps 675 mmHg 16%
    12:00 +36°C° 0 mm 2 mps 675 mmHg 14%
    13:00 +37°C° 0 mm 3 mps 674 mmHg 14%
    14:00 +38°C° 0 mm 3 mps 674 mmHg 13%
    15:00 +40°C° 0 mm 4 mps 674 mmHg 13%
    16:00 +38°C° 0 mm 4 mps 673 mmHg 16%
    17:00 +37°C° 0 mm 5 mps 673 mmHg 19%
    18:00 +35°C° 0 mm 5 mps 672 mmHg 23%
    19:00 +33°C° 0 mm 5 mps 672 mmHg 25%
    20:00 +30°C° 0 mm 4 mps 672 mmHg 28%
    21:00 +28°C° 0 mm 4 mps 672 mmHg 30%
    22:00 +26°C° 0 mm 3 mps 672 mmHg 32%
    23:00 +25°C° 0 mm 3 mps 672 mmHg 33%

    Day after tomorrow, 22 August, Thursday

    Time Temperature Precipitation Wind Pressure Humidity
    00:00 +24°C° 0 mm 2 mps 672 mmHg 35%
    01:00 +23°C° 0 mm 2 mps 671 mmHg 35%
    02:00 +23°C° 0 mm 2 mps 671 mmHg 36%
    03:00 +21°C° 0 mm 2 mps 671 mmHg 36%
    04:00 +21°C° 0 mm 2 mps 671 mmHg 36%
    05:00 +22°C° 0 mm 1 mps 671 mmHg 36%
    06:00 +22°C° 0 mm 1 mps 671 mmHg 36%
    07:00 +25°C° 0 mm 2 mps 671 mmHg 31%
    08:00 +28°C° 0 mm 2 mps 672 mmHg 26%
    09:00 +31°C° 0 mm 2 mps 672 mmHg 21%
    10:00 +34°C° 0 mm 3 mps 672 mmHg 18%
    11:00 +35°C° 0 mm 3 mps 672 mmHg 15%
    12:00 +37°C° 0 mm 4 mps 672 mmHg 13%
    13:00 +38°C° 0 mm 4 mps 672 mmHg 12%
    14:00 +40°C° 0 mm 4 mps 671 mmHg 11%
    15:00 +41°C° 0 mm 4 mps 671 mmHg 11%
    16:00 +39°C° 0 mm 5 mps 671 mmHg 15%
    17:00 +36°C° 0 mm 6 mps 671 mmHg 20%
    18:00 +34°C° 0 mm 6 mps 670 mmHg 25%
    19:00 +32°C° 0 mm 5 mps 670 mmHg 28%
    20:00 +28°C° 0 mm 4 mps 671 mmHg 31%
    21:00 +25°C° 0 mm 3 mps 671 mmHg 34%
    22:00 +24°C° 0 mm 3 mps 671 mmHg 34%
    23:00 +24°C° 0 mm 3 mps 671 mmHg 34%

    23 August, Friday

    Time Temperature Precipitation Wind Pressure Humidity
    00:00 +22°C° 0 mm 3 mps 671 mmHg 35%
    01:00 +21°C° 0 mm 2 mps 671 mmHg 35%
    02:00 +21°C° 0 mm 2 mps 670 mmHg 36%
    03:00 +20°C° 0 mm 2 mps 670 mmHg 37%
    04:00 +21°C° 0 mm 1 mps 670 mmHg 37%
    05:00 +21°C° 0 mm 1 mps 671 mmHg 37%
    06:00 +21°C° 0 mm 1 mps 671 mmHg 36%
    07:00 +24°C° 0 mm 1 mps 671 mmHg 31%
    08:00 +27°C° 0 mm 1 mps 672 mmHg 26%
    09:00 +30°C° 0 mm 1 mps 672 mmHg 22%
    10:00 +31°C° 0 mm 2 mps 672 mmHg 19%
    11:00 +34°C° 0 mm 2 mps 672 mmHg 17%
    12:00 +35°C° 0 mm 2 mps 673 mmHg 15%
    13:00 +36°C° 0 mm 2 mps 672 mmHg 14%
    14:00 +37°C° 0 mm 2 mps 672 mmHg 13%
    15:00 +37°C° 0 mm 2 mps 672 mmHg 12%
    16:00 +36°C° 0 mm 3 mps 672 mmHg 16%
    17:00 +35°C° 0 mm 5 mps 671 mmHg 21%
    18:00 +33°C° 0 mm 6 mps 671 mmHg 25%
    19:00 +30°C° 0 mm 5 mps 671 mmHg 29%
    20:00 +27°C° 0 mm 4 mps 671 mmHg 33%
    21:00 +23°C° 0 mm 4 mps 671 mmHg 37%
    22:00 +24°C° 0 mm 3 mps 671 mmHg 38%
    23:00 +22°C° 0 mm 3 mps 671 mmHg 39%

    24 August, Saturday

    Time Temperature Precipitation Wind Pressure Humidity
    00:00 +21°C° 0 mm 2 mps 671 mmHg 40%
    01:00 +21°C° 0 mm 2 mps 671 mmHg 41%
    02:00 +20°C° 0 mm 2 mps 671 mmHg 42%
    03:00 +20°C° 0 mm 2 mps 671 mmHg 43%
    04:00 +21°C° 0 mm 1 mps 671 mmHg 43%
    05:00 +21°C° 0 mm 1 mps 671 mmHg 43%
    06:00 +21°C° 0 mm 1 mps 671 mmHg 43%
    07:00 +24°C° 0 mm 1 mps 672 mmHg 37%
    08:00 +27°C° 0 mm 1 mps 672 mmHg 32%
    09:00 +29°C° 0 mm 2 mps 673 mmHg 26%
    10:00 +31°C° 0 mm 2 mps 673 mmHg 24%
    11:00 +34°C° 0 mm 2 mps 673 mmHg 22%
    12:00 +35°C° 0 mm 2 mps 673 mmHg 19%
    13:00 +36°C° 0.1 mm 2 mps 673 mmHg 18%
    14:00 +36°C° 0.1 mm 2 mps 673 mmHg 17%
    15:00 +36°C° 0.1 mm 1 mps 673 mmHg 16%
    16:00 +35°C° 0.3 mm 3 mps 672 mmHg 23%
    17:00 +33°C° 0.3 mm 4 mps 672 mmHg 30%
    18:00 +30°C° 0.3 mm 6 mps 672 mmHg 37%
    19:00 +28°C° 0.1 mm 5 mps 672 mmHg 41%
    20:00 +26°C° 0.1 mm 4 mps 672 mmHg 46%
    21:00 +24°C° 0.1 mm 3 mps 672 mmHg 50%
    22:00 +24°C° 0.1 mm 2 mps 673 mmHg 51%
    23:00 +24°C° 0.1 mm 2 mps 673 mmHg 52%

    25 August, Sunday

    Time Temperature Precipitation Wind Pressure Humidity
    00:00 +23°C° 0.1 mm 2 mps 673 mmHg 52%
    01:00 +23°C° 0.2 mm 2 mps 673 mmHg 54%
    02:00 +23°C° 0.2 mm 1 mps 673 mmHg 56%
    03:00 +22°C° 0.2 mm 1 mps 673 mmHg 58%
    04:00 +22°C° 0 mm 1 mps 673 mmHg 59%
    05:00 +22°C° 0 mm 1 mps 673 mmHg 60%
    06:00 +21°C° 0 mm 1 mps 673 mmHg 61%
    07:00 +24°C° 0.1 mm 1 mps 673 mmHg 54%
    08:00 +26°C° 0.1 mm 1 mps 674 mmHg 47%
    09:00 +28°C° 0.1 mm 1 mps 674 mmHg 40%
    10:00 +30°C° 0.2 mm 2 mps 674 mmHg 36%
    11:00 +31°C° 0.2 mm 2 mps 674 mmHg 31%
    12:00 +34°C° 0.2 mm 2 mps 674 mmHg 27%
    13:00 +35°C° 0.1 mm 2 mps 674 mmHg 25%
    14:00 +35°C° 0.1 mm 2 mps 674 mmHg 24%
    15:00 +35°C° 0.1 mm 1 mps 674 mmHg 22%
    16:00 +35°C° 0.1 mm 3 mps 673 mmHg 26%
    17:00 +34°C° 0.1 mm 4 mps 673 mmHg 30%
    18:00 +32°C° 0.1 mm 6 mps 673 mmHg 34%
    19:00 +29°C° 0.2 mm 5 mps 674 mmHg 41%
    20:00 +26°C° 0.2 mm 4 mps 674 mmHg 48%
    21:00 +24°C° 0.2 mm 3 mps 674 mmHg 56%
    22:00 +23°C° 0.2 mm 2 mps 674 mmHg 56%
    23:00 +23°C° 0.2 mm 2 mps 674 mmHg 57%
    Show more